EW4713 Weather Reports


Display with metric or nautical units.
time (UTC)temp
F
wind
direction
speed
MPH
gust
MPH
rain 1hr
in
rain 24hr
in
rain mn
in
humidity
%
barometer
mb
20260831064440 66 168 0.0 5.0 0.16 0.16 0.16 99 1003.3
20260831063937 66 300 1.0 5.0 0.16 0.16 0.16 99 1003.3
20260831063439 65 270 0.0 5.0 0.16 0.16 0.16 99 1003.3
20260831062937 66 275 2.0 8.0 0.16 0.16 0.16 99 1003.3
20260831062439 66 356 2.0 11.0 0.12 0.12 0.07 99 1002.9
20260831061936 66 334 0.0 11.0 0.00 0.00 0.00 99 1003.6
20260831061437 66 298 3.0 6.0 0.00 0.00 0.00 99 1003.3
20260831060936 66 324 2.0 5.0 0.00 0.00 0.00 99 1002.9
20260831060437 66 236 2.0 5.0 0.00 0.00 0.00 99 1002.6
20260831055431 66 312 6.0 8.0 0.00 0.00 0.00 99 1002.6
20260831054929 66 346 3.0 7.0 0.00 0.00 0.00 99 1003.3
20260831054430 66 296 4.0 8.0 0.00 0.00 0.00 99 1003.3
20260831053929 66 248 2.0 8.0 0.00 0.00 0.00 99 1003.3
20260831053430 66 230 5.0 7.0 0.00 0.00 0.00 99 1003.3
20260831052932 66 283 2.0 9.0 0.00 0.00 0.00 98 1003.3
20260831052434 66 312 4.0 10.0 0.00 0.00 0.00 98 1003.3
20260831051932 66 291 3.0 10.0 0.00 0.00 0.00 98 1003.6
20260831051433 66 348 2.0 7.0 0.00 0.00 0.00 98 1003.3
20260831050931 66 262 6.0 11.0 0.00 0.00 0.00 98 1003.6
20260831050432 66 243 3.0 10.0 0.00 0.00 0.00 98 1003.3
20260831045931 66 323 4.0 10.0 0.00 0.00 0.00 98 1003.3
20260831045433 66 255 3.0 11.0 0.00 0.00 0.00 98 1003.3
20260831043930 66 302 2.0 8.0 0.00 0.00 0.00 98 1004.0
20260831043431 66 228 2.0 12.0 0.00 0.00 0.00 98 1004.0
20260831042930 66 309 0.0 11.0 0.00 0.00 0.00 98 1004.0
20260831042431 66 290 4.0 9.0 0.00 0.00 0.00 98 1004.0
20260831035927 66 219 4.0 9.0 0.00 0.00 0.00 97 1004.4
20260831035429 66 276 6.0 9.0 0.00 0.00 0.00 97 1004.4
20260831034927 66 285 4.0 9.0 0.00 0.00 0.00 97 1004.7
20260831034428 66 243 4.0 10.0 0.00 0.00 0.00 97 1004.7
20260831033927 66 256 5.0 10.0 0.00 0.00 0.00 98 1004.7
20260831033432 66 319 2.0 8.0 0.00 0.00 0.00 98 1004.7
20260831032926 66 291 4.0 8.0 0.00 0.00 0.00 98 1005.1
20260831032426 66 274 2.0 7.0 0.00 0.00 0.00 98 1005.1
20260831031925 66 273 3.0 4.0 0.00 0.00 0.00 98 1005.4
20260831030427 66 258 5.0 9.0 0.00 0.00 0.00 97 1005.1
20260831025924 66 315 2.0 11.0 0.00 0.00 0.00 97 1005.1
20260831025425 66 299 4.0 11.0 0.00 0.00 0.00 97 1005.1
20260831024925 67 297 3.0 11.0 0.00 0.00 0.00 97 1005.1
20260831024426 67 300 3.0 11.0 0.00 0.00 0.00 96 1005.4
20260831023924 67 180 0.0 8.0 0.00 0.00 0.00 96 1005.1
20260831023427 67 237 3.0 5.0 0.00 0.00 0.00 96 1005.4
20260831022929 67 341 2.0 7.0 0.00 0.00 0.00 96 1005.4
20260831022424 67 254 1.0 7.0 0.00 0.00 0.00 95 1005.1
20260831021921 67 259 3.0 12.0 0.00 0.00 0.00 94 1005.1
20260831021424 67 252 5.0 12.0 0.00 0.00 0.00 94 1005.1
20260831020921 68 320 2.0 9.0 0.00 0.00 0.00 93 1005.1
20260831020421 68 304 2.0 13.0 0.00 0.00 0.00 93 1004.7
20260831015921 68 236 2.0 13.0 0.00 0.00 0.00 92 1004.7
20260831015421 68 233 5.0 9.0 0.00 0.00 0.00 92 1004.7
20260831014406 68 339 6.0 9.0 0.00 0.00 0.00 91 1004.7
20260831013401 69 334 5.0 7.0 0.00 0.00 0.00 91 1005.1
20260831012902 68 312 2.0 5.0 0.00 0.00 0.00 91 1005.1
20260831012401 69 297 1.0 5.0 0.00 0.00 0.00 91 1005.1
20260831011900 69 285 2.0 5.0 0.00 0.00 0.00 91 1005.1
20260831011401 68 346 5.0 5.0 0.00 0.00 0.00 91 1004.7
20260831010901 69 242 4.0 5.0 0.00 0.00 0.00 90 1005.1
20260831010401 69 264 1.0 5.0 0.00 0.00 0.00 90 1005.1
20260831005901 69 310 3.0 10.0 0.00 0.00 0.00 90 1005.1
20260831005402 69 258 2.0 10.0 0.00 0.00 0.00 90 1004.7
20260831004901 69 279 2.0 6.0 0.00 0.00 0.00 90 1004.7
20260831004402 69 251 2.0 7.0 0.00 0.00 0.00 90 1004.7
20260831003901 69 300 2.0 7.0 0.00 0.00 0.00 90 1004.4
20260831003401 69 270 2.0 5.0 0.00 0.00 0.00 90 1004.4
20260831002900 69 261 3.0 5.0 0.00 0.00 0.00 90 1004.4
20260831002401 69 294 4.0 10.0 0.00 0.00 0.00 89 1004.4
20260831001900 69 289 1.0 10.0 0.00 0.00 0.00 89 1004.7
20260831000901 69 289 2.0 12.0 0.00 0.00 0.00 89 1004.7
20260831000403 69 283 4.0 9.0 0.00 0.00 0.00 89 1004.7
20260830235901 69 327 2.0 9.0 0.00 0.00 0.00 88 1004.7
20260830235402 69 264 1.0 10.0 0.00 0.00 0.00 89 1004.7
20260830234901 69 275 2.0 10.0 0.00 0.00 0.00 88 1004.4
20260830234403 69 237 2.0 6.0 0.00 0.00 0.00 88 1004.7
20260830233402 69 299 2.0 10.0 0.00 0.00 0.00 88 1005.1
20260830232901 69 275 2.0 10.0 0.00 0.00 0.00 87 1005.1
20260830232401 70 288 4.0 7.0 0.00 0.00 0.00 87 1005.1
20260830231901 69 288 4.0 7.0 0.00 0.00 0.00 87 1005.4
20260830231403 70 291 4.0 9.0 0.00 0.00 0.00 87 1005.4
20260830230901 70 246 4.0 9.0 0.00 0.00 0.00 86 1005.1
20260830225900 70 180 0.0 5.0 0.00 0.00 0.00 87 1005.4
20260830225401 70 235 3.0 5.0 0.00 0.00 0.00 87 1005.4
20260830224903 70 274 2.0 8.0 0.00 0.00 0.00 87 1005.4
20260830224401 70 270 3.0 11.0 0.00 0.00 0.00 86 1005.4
20260830223901 70 334 3.0 11.0 0.00 0.00 0.00 87 1005.1
20260830223400 70 282 2.0 8.0 0.00 0.00 0.00 87 1005.1
20260830222901 69 292 2.0 5.0 0.00 0.00 0.00 88 1005.1
20260830221903 69 291 1.0 6.0 0.00 0.00 0.00 89 1005.7
20260830220904 69 297 4.0 5.0 0.00 0.00 0.00 89 1005.7
20260830220402 69 286 2.0 12.0 0.00 0.00 0.00 89 1005.7
20260830215902 69 270 1.0 12.0 0.00 0.00 0.00 89 1006.5
20260830215404 69 293 6.0 8.0 0.00 0.00 0.00 89 1006.1
20260830214902 69 248 2.0 6.0 0.00 0.00 0.00 90 1006.1
20260830214404 69 266 2.0 6.0 0.00 0.00 0.00 90 1006.1
20260830213903 68 262 2.0 4.0 0.00 0.00 0.00 90 1006.5
20260830213402 69 322 2.0 5.0 0.00 0.00 0.00 90 1006.5
20260830212902 68 270 1.0 10.0 0.00 0.00 0.00 91 1006.9
20260830211903 68 323 2.0 7.0 0.00 0.00 0.00 91 1006.9
20260830211403 69 264 1.0 7.0 0.00 0.00 0.00 91 1006.9
20260830210403 68 264 1.0 7.0 0.00 0.00 0.00 92 1007.2
20260830205905 68 326 3.0 4.0 0.00 0.00 0.00 92 1006.9
20260830205404 68 305 3.0 6.0 0.00 0.00 0.00 92 1006.9
20260830204902 67 293 5.0 6.0 0.00 0.00 0.00 92 1006.9
20260830204401 67 255 1.0 6.0 0.00 0.00 0.00 92 1007.2
20260830203401 68 237 0.0 5.0 0.00 0.00 0.00 93 1007.2
20260830202901 67 270 2.0 6.0 0.00 0.00 0.00 93 1007.2
20260830202401 67 260 2.0 8.0 0.00 0.00 0.00 93 1006.9
20260830201900 67 349 2.0 8.0 0.00 0.00 0.00 93 1007.2
20260830200402 67 286 4.0 7.0 0.00 0.00 0.00 93 1007.5
20260830195859 68 239 2.0 10.0 0.00 0.00 0.00 93 1007.2
20260830195358 68 279 4.0 10.0 0.00 0.00 0.00 92 1007.2
20260830194859 67 184 2.0 6.0 0.00 0.00 0.00 93 1007.5
20260830194358 67 234 3.0 7.0 0.00 0.00 0.00 93 1007.5
20260830193857 67 249 4.0 7.0 0.00 0.00 0.00 92 1007.5
20260830193357 68 293 3.0 6.0 0.00 0.00 0.00 92 1007.5
20260830192858 68 357 0.0 10.0 0.00 0.00 0.00 93 1007.2
20260830192357 68 251 0.0 10.0 0.00 0.00 0.00 93 1006.9
20260830191856 67 288 3.0 8.0 0.00 0.00 0.00 92 1007.5
20260830190857 67 331 2.0 7.0 0.00 0.00 0.00 93 1007.2
20260830190355 67 318 3.0 10.0 0.00 0.00 0.00 93 1007.5
20260830184854 67 286 2.0 6.0 0.00 0.00 0.00 94 1007.2
20260830184355 67 282 3.0 8.0 0.00 0.00 0.00 94 1007.2
20260830183854 67 290 3.0 8.0 0.00 0.00 0.00 94 1007.2
20260830183354 67 250 2.0 7.0 0.00 0.00 0.00 94 1007.2
20260830182855 67 244 3.0 10.0 0.00 0.00 0.00 94 1007.2
20260830182353 67 228 4.0 10.0 0.00 0.00 0.00 94 1007.2
20260830181853 67 277 2.0 7.0 0.00 0.00 0.00 94 1006.9
20260830180852 67 292 2.0 6.0 0.00 0.00 0.00 94 1007.2
20260830180352 67 236 0.0 5.0 0.00 0.00 0.00 95 1006.9
20260830174851 67 294 4.0 5.0 0.00 0.00 0.00 94 1007.2
20260830174352 67 292 0.0 9.0 0.00 0.00 0.00 94 1007.2
20260830173850 67 13 3.0 9.0 0.00 0.00 0.00 94 1006.9
20260830173351 67 278 4.0 7.0 0.00 0.00 0.00 95 1007.2
20260830172852 67 259 2.0 7.0 0.00 0.00 0.00 95 1007.2
20260830172349 67 225 6.0 8.0 0.00 0.00 0.00 96 1007.2
20260830171849 66 291 3.0 5.0 0.00 0.00 0.00 96 1007.2
20260830171350 66 222 3.0 7.0 0.00 0.00 0.00 96 1007.2
20260830170348 66 311 4.0 6.0 0.00 0.00 0.00 97 1007.2
20260830165850 66 263 3.0 6.0 0.00 0.00 0.00 97 1007.2
20260830165348 66 0 1.0 6.0 0.00 0.00 0.00 97 1007.2
20260830164847 66 348 0.0 5.0 0.00 0.00 0.00 97 1007.5
20260830164348 65 280 0.0 5.0 0.00 0.00 0.00 97 1007.2
20260830163847 66 303 2.0 4.0 0.00 0.00 0.00 97 1007.2
20260830163347 65 294 2.0 6.0 0.00 0.00 0.00 97 1006.9
20260830162848 65 256 3.0 6.0 0.00 0.00 0.00 97 1007.2
20260830161846 65 324 2.0 7.0 0.00 0.00 0.00 97 1007.2
20260830161347 66 248 0.0 7.0 0.00 0.00 0.00 97 1007.5
20260830160345 66 337 3.0 5.0 0.00 0.00 0.00 97 1007.5
20260830155845 65 253 2.0 6.0 0.00 0.00 0.00 96 1007.5
20260830155344 65 334 3.0 6.0 0.00 0.00 0.00 96 1007.5
20260830154844 66 194 2.0 6.0 0.00 0.00 0.00 96 1007.5
20260830154345 66 291 1.0 9.0 0.00 0.00 0.00 96 1007.5
20260830153843 66 270 4.0 9.0 0.00 0.00 0.00 96 1007.5
20260830153343 66 270 1.0 7.0 0.00 0.00 0.00 96 1007.5
20260830152342 65 243 0.0 7.0 0.00 0.00 0.00 97 1007.5
20260830151842 65 263 0.0 7.0 0.00 0.00 0.00 97 1007.9
20260830151342 65 7 1.0 8.0 0.00 0.00 0.00 97 1007.5
20260830150842 65 285 3.0 8.0 0.00 0.00 0.00 98 1007.5
20260830145843 65 0 0.0 5.0 0.00 0.00 0.00 98 1007.9
20260830145340 65 328 2.0 3.0 0.00 0.00 0.00 98 1007.9
20260830144840 65 276 1.0 3.0 0.00 0.00 0.00 98 1007.9
20260830144341 65 291 0.0 6.0 0.00 0.00 0.00 98 1007.5
20260830143840 65 212 0.0 6.0 0.00 0.00 0.00 98 1007.9
20260830143339 65 258 2.0 5.0 0.00 0.00 0.00 98 1007.9
20260830142840 65 342 0.0 6.0 0.00 0.00 0.00 98 1007.5
20260830141838 64 270 0.0 4.0 0.00 0.00 0.00 98 1007.5
20260830140829 64 225 0.0 5.0 0.00 0.00 0.00 98 1007.5
20260830135831 64 308 9.0 11.0 0.00 0.00 0.00 99 1007.5
20260830135329 64 283 1.0 7.0 0.00 0.00 0.00 99 1007.2
20260830134828 64 355 2.0 7.0 0.00 0.00 0.00 99 1007.5
20260830134331 64 283 3.0 6.0 0.00 0.00 0.00 99 1007.5
20260830133829 64 340 1.0 6.0 0.00 0.00 0.00 99 1007.5
20260830132831 64 286 2.0 4.0 0.00 0.00 0.00 99 1007.2
20260830132329 64 294 2.0 4.0 0.00 0.00 0.00 99 1007.5
20260830131828 64 276 0.0 4.0 0.00 0.00 0.00 99 1007.2
20260830131331 64 303 2.0 4.0 0.00 0.00 0.00 99 1007.5
20260830130830 64 294 1.0 4.0 0.00 0.00 0.00 99 1007.5
20260830130329 64 270 1.0 4.0 0.00 0.00 0.00 99 1007.5
20260830125328 64 297 0.0 7.0 0.00 0.00 0.00 99 1007.5
20260830124829 64 355 1.0 5.0 0.00 0.00 0.00 99 1007.9
20260830124334 64 0 0.0 5.0 0.00 0.00 0.00 99 1007.5
20260830123832 64 254 2.0 4.0 0.00 0.00 0.00 99 1007.5
20260830122832 64 270 0.0 3.0 0.00 0.00 0.00 99 1007.2
20260830121801 64 294 0.0 4.0 0.00 0.00 0.00 98 1007.5
20260830121302 65 337 0.0 6.0 0.00 0.00 0.00 98 1007.5
20260830120801 65 261 0.0 6.0 0.00 0.00 0.00 98 1007.5
20260830120314 65 260 6.0 6.0 0.00 0.00 0.00 98 1007.5
20260830115802 65 291 0.0 2.0 0.00 0.00 0.00 97 1007.5
20260830115301 65 279 0.0 3.0 0.00 0.00 0.00 97 1007.5
20260830114801 65 353 0.0 4.0 0.00 0.00 0.00 97 1007.9
20260830114303 65 337 2.0 4.0 0.00 0.00 0.00 97 1007.5
20260830113801 65 0 2.0 4.0 0.00 0.00 0.00 97 1007.5
20260830113301 65 279 0.0 3.0 0.00 0.00 0.00 97 1007.5
20260830112802 65 0 0.0 3.0 0.00 0.00 0.00 97 1007.5
20260830111801 65 10 2.0 4.0 0.00 0.00 0.00 97 1007.5
20260830110801 65 285 0.0 3.0 0.00 0.00 0.00 97 1007.5
20260830110301 65 270 0.0 4.0 0.00 0.00 0.00 97 1007.5
20260830105811 65 270 0.0 6.0 0.00 0.00 0.00 97 1007.2
20260830104802 65 297 0.0 9.0 0.00 0.00 0.00 97 1007.2
20260830104303 65 299 3.0 9.0 0.00 0.00 0.00 97 1007.2
20260830103801 65 345 0.0 4.0 0.00 0.00 0.00 97 1006.9
20260830102802 65 0 1.0 4.0 0.00 0.00 0.00 97 1006.9
20260830102302 65 336 2.0 4.0 0.00 0.00 0.00 97 1007.2
20260830101801 65 270 0.0 4.0 0.00 0.00 0.00 97 1007.2
20260830101302 65 240 0.0 4.0 0.00 0.00 0.00 98 1007.2
20260830100800 65 236 0.0 5.0 0.00 0.00 0.00 98 1007.2
20260830100306 65 287 2.0 5.0 0.00 0.00 0.00 98 1007.5
20260830095802 65 340 1.0 2.0 0.00 0.00 0.00 98 1007.2
20260830095305 65 270 2.0 2.0 0.00 0.00 0.00 98 1007.5
20260830094801 65 283 0.0 2.0 0.00 0.00 0.00 98 1007.5
20260830093801 65 283 0.0 3.0 0.00 0.00 0.00 98 1007.5
20260830093301 65 294 0.0 3.0 0.00 0.00 0.00 98 1007.9
20260830092802 65 263 0.0 5.0 0.00 0.00 0.00 98 1007.5
20260830092301 65 286 1.0 5.0 0.00 0.00 0.00 98 1007.2
20260830091801 65 255 2.0 3.0 0.00 0.00 0.00 98 1007.2
20260830091302 65 278 0.0 3.0 0.00 0.00 0.00 98 1007.2
20260830090301 65 0 0.0 4.0 0.00 0.00 0.00 98 1007.2
20260830085802 65 7 0.0 4.0 0.00 0.00 0.00 97 1007.2
20260830085301 65 276 0.0 3.0 0.00 0.00 0.00 98 1007.2
20260830084801 65 290 0.0 3.0 0.00 0.00 0.00 98 1007.2
20260830084303 65 285 0.0 2.0 0.00 0.00 0.00 98 1006.9
20260830083801 65 291 0.0 3.0 0.00 0.00 0.00 98 1006.9
20260830083300 65 240 0.0 3.0 0.00 0.00 0.00 98 1007.2
20260830082803 65 0 0.0 2.0 0.00 0.00 0.00 98 1007.2
20260830082301 65 270 0.0 2.0 0.00 0.00 0.00 98 1007.2
20260830081801 65 286 0.0 1.0 0.00 0.00 0.00 98 1007.2
20260830080801 66 291 0.0 2.0 0.00 0.00 0.00 98 1006.9
20260830080300 65 306 0.0 2.0 0.00 0.00 0.00 98 1007.2
20260830075803 65 306 0.0 3.0 0.00 0.00 0.00 98 1007.2
20260830075301 65 337 0.0 3.0 0.00 0.00 0.00 98 1006.9
20260830074801 65 346 2.0 4.0 0.00 0.00 0.00 98 1006.9
20260830073800 66 320 2.0 4.0 0.00 0.00 0.00 98 1007.2
20260830072802 65 270 0.0 4.0 0.00 0.00 0.00 98 1007.5
20260830072302 65 276 0.0 4.0 0.00 0.00 0.00 98 1007.2
20260830071801 65 306 3.0 5.0 0.00 0.00 0.00 98 1007.5
20260830071302 65 253 4.0 5.0 0.00 0.00 0.00 98 1007.5
20260830070801 65 240 2.0 5.0 0.00 0.00 0.00 99 1007.2
20260830070300 65 355 0.0 5.0 0.00 0.00 0.00 99 1007.2
20260830065802 65 270 0.0 3.0 0.00 0.00 0.00 99 1007.2
20260830065301 65 334 0.0 4.0 0.00 0.00 0.00 99 1007.5
20260830064801 65 352 0.0 7.0 0.00 0.00 0.00 99 1007.5